DW9234 Weather Reports


Display with metric or nautical units.
time (UTC)temp
F
wind
direction
speed
MPH
gust
MPH
rain 1hr
in
rain 24hr
in
rain mn
in
humidity
%
barometer
mb
20260508134004 55 254 3.0 6.0 0.00 0.00 0.00 42 1016.3
20260508133004 54 26 1.0 4.0 0.00 0.00 0.00 44 1016.3
20260508132004 54 276 0.0 4.0 0.00 0.00 0.00 48 1016.3
20260508131004 53 42 1.0 4.0 0.00 0.00 0.00 49 1016.4
20260508130004 52 279 0.0 4.0 0.00 0.00 0.00 49 1016.4
20260508125004 52 280 4.0 5.0 0.00 0.00 0.00 52 1016.5
20260508124004 51 270 2.0 4.0 0.00 0.00 0.00 54 1016.5
20260508123004 50 285 1.0 3.0 0.00 0.00 0.00 57 1016.5
20260508122004 49 58 0.0 6.0 0.00 0.00 0.00 58 1016.4
20260508121005 48 243 0.0 1.0 0.00 0.00 0.00 62 1016.3
20260508120004 48 265 0.0 2.0 0.00 0.00 0.00 63 1016.2
20260508115005 47 290 0.0 2.0 0.00 0.00 0.00 63 1016.3
20260508114004 47 290 0.0 2.0 0.00 0.00 0.00 64 1016.2
20260508110005 46 92 0.0 0.0 0.00 0.00 0.00 63 1015.9
20260508105004 46 92 0.0 0.0 0.00 0.00 0.00 62 1015.7
20260508104005 46 92 0.0 0.0 0.00 0.00 0.00 61 1015.6
20260508103004 46 92 0.0 0.0 0.00 0.00 0.00 61 1015.4
20260508102005 47 92 0.0 0.0 0.00 0.00 0.00 60 1015.3
20260508101005 47 92 0.0 0.0 0.00 0.00 0.00 59 1015.2
20260508100004 48 92 0.0 0.0 0.00 0.00 0.00 59 1015.1
20260508094003 48 92 0.0 0.0 0.00 0.00 0.00 58 1015.0
20260508093004 49 92 0.0 0.0 0.00 0.00 0.00 57 1015.1
20260508092004 49 92 0.0 0.0 0.00 0.00 0.00 57 1015.0
20260508091004 49 92 0.0 0.0 0.00 0.00 0.00 56 1014.9
20260508090004 50 92 0.0 0.0 0.00 0.00 0.00 55 1014.9
20260508084004 51 92 0.0 0.0 0.00 0.00 0.00 54 1014.8
20260508083004 51 92 0.0 0.0 0.00 0.00 0.00 54 1014.8
20260508082005 51 92 0.0 0.0 0.00 0.00 0.00 54 1014.6
20260508081004 51 92 0.0 2.0 0.00 0.00 0.00 53 1014.4
20260508074004 52 74 2.0 5.0 0.00 0.00 0.00 52 1013.9
20260508073004 52 54 1.0 5.0 0.00 0.00 0.00 52 1013.7
20260508072004 52 241 1.0 6.0 0.00 0.00 0.00 52 1013.6
20260508071004 52 305 1.0 5.0 0.00 0.00 0.00 54 1013.5
20260508070004 52 70 2.0 4.0 0.00 0.00 0.00 55 1013.2
20260508064003 52 288 0.0 6.0 0.00 0.00 0.00 59 1013.0
20260508062005 53 202 0.0 2.0 0.00 0.00 0.00 60 1012.7
20260508061004 53 173 0.0 0.0 0.00 0.00 0.00 60 1012.7
20260508060004 53 173 0.0 0.0 0.00 0.00 0.00 60 1012.5
20260508055005 54 174 0.0 2.0 0.00 0.00 0.00 59 1012.4
20260508054004 54 175 0.0 1.0 0.00 0.00 0.00 58 1012.2
20260508053004 54 175 0.0 1.0 0.00 0.00 0.00 58 1012.1
20260508052004 55 175 0.0 2.0 0.00 0.00 0.00 58 1012.1
20260508051004 55 173 1.0 5.0 0.00 0.00 0.00 58 1012.0
20260508050004 55 265 1.0 5.0 0.00 0.00 0.00 58 1011.9
20260508044005 55 267 0.0 4.0 0.00 0.00 0.00 57 1011.9
20260508043004 55 277 0.0 4.0 0.00 0.00 0.00 57 1011.8
20260508042004 55 259 0.0 2.0 0.00 0.00 0.00 57 1011.8
20260508041004 55 275 0.0 1.0 0.00 0.00 0.00 57 1011.8
20260508040004 55 275 0.0 2.0 0.00 0.00 0.06 56 1011.9
20260508035004 55 262 0.0 2.0 0.00 0.00 0.06 56 1011.7
20260508034005 55 281 0.0 4.0 0.00 0.00 0.06 56 1011.7
20260508032004 55 311 1.0 2.0 0.00 0.00 0.06 56 1011.7
20260508031004 55 292 0.0 4.0 0.00 0.00 0.06 56 1011.7
20260508030004 55 360 1.0 3.0 0.00 0.00 0.06 56 1011.7
20260508022004 56 34 2.0 4.0 0.00 0.00 0.06 55 1011.8
20260508021004 56 121 0.0 5.0 0.00 0.00 0.06 55 1011.7
20260508020005 56 320 2.0 7.0 0.00 0.00 0.06 55 1011.7
20260508015005 57 53 1.0 5.0 0.00 0.00 0.06 54 1011.6
20260508014003 57 58 4.0 4.0 0.00 0.00 0.06 52 1011.6
20260508013004 58 283 1.0 2.0 0.00 0.00 0.06 50 1011.4
20260508011004 58 355 0.0 5.0 0.00 0.00 0.06 45 1010.9
20260508010004 58 274 0.0 2.0 0.00 0.00 0.06 41 1010.8
20260508005003 58 226 0.0 0.0 0.00 0.00 0.06 43 1010.7
20260508004004 59 226 0.0 0.0 0.00 0.00 0.06 42 1010.6
20260508003004 59 226 0.0 0.0 0.00 0.00 0.06 41 1010.5
20260508002004 60 226 0.0 0.0 0.00 0.00 0.06 40 1010.3
20260508001005 60 226 0.0 0.0 0.00 0.00 0.06 40 1010.4
20260508000004 61 226 0.0 0.0 0.00 0.00 0.06 38 1010.3
20260507235004 62 226 0.0 0.0 0.00 0.00 0.06 37 1010.1
20260507234005 62 226 0.0 2.0 0.00 0.00 0.06 36 1010.0
20260507233004 63 229 0.0 1.0 0.00 0.00 0.06 35 1010.0
20260507232004 63 229 0.0 1.0 0.00 0.00 0.06 33 1009.9
20260507231004 64 229 1.0 4.0 0.00 0.00 0.06 31 1010.0
20260507230006 64 228 2.0 5.0 0.00 0.00 0.06 31 1009.8
20260507225004 64 279 0.0 4.0 0.00 0.00 0.06 30 1009.7
20260507224004 64 291 0.0 4.0 0.00 0.00 0.06 29 1009.8
20260507223003 65 38 0.0 2.0 0.00 0.00 0.06 28 1009.6
20260507222004 65 38 1.0 5.0 0.00 0.00 0.06 28 1009.7
20260507221003 65 234 0.0 5.0 0.00 0.00 0.06 28 1009.6
20260507220004 65 270 8.0 9.0 0.00 0.00 0.06 28 1009.7
20260507215004 66 265 5.0 6.0 0.00 0.00 0.06 28 1009.7
20260507214005 66 187 0.0 9.0 0.00 0.00 0.06 27 1009.8
20260507213003 66 296 0.0 9.0 0.00 0.00 0.06 26 1010.1
20260507212005 67 86 0.0 6.0 0.00 0.00 0.06 26 1009.9
20260507211004 67 257 0.0 8.0 0.00 0.00 0.06 27 1009.9
20260507205004 68 360 1.0 6.0 0.00 0.00 0.06 26 1009.7
20260507203004 68 292 1.0 5.0 0.00 0.00 0.06 27 1009.7
20260507202004 68 269 2.0 8.0 0.00 0.00 0.06 25 1009.7
20260507201004 68 102 1.0 5.0 0.00 0.00 0.06 27 1009.7
20260507195005 68 275 0.0 5.0 0.00 0.00 0.06 26 1009.8
20260507194004 68 349 1.0 6.0 0.00 0.00 0.06 28 1010.1
20260507193004 68 129 2.0 8.0 0.00 0.00 0.06 29 1010.2
20260507192004 68 300 0.0 6.0 0.00 0.00 0.06 29 1010.2
20260507191004 68 319 1.0 5.0 0.00 0.00 0.06 31 1010.4
20260507190005 68 288 1.0 9.0 0.00 0.00 0.06 28 1010.4
20260507185004 68 221 1.0 7.0 0.00 0.00 0.06 33 1010.7
20260507183004 68 78 2.0 6.0 0.00 0.00 0.06 29 1011.0
20260507182004 67 31 2.0 5.0 0.00 0.00 0.06 31 1011.1
20260507181003 67 271 0.0 5.0 0.00 0.00 0.06 31 1010.9
20260507180004 66 268 1.0 5.0 0.00 0.00 0.06 34 1010.9
20260507175005 66 269 1.0 5.0 0.00 0.00 0.06 38 1010.9
20260507173004 66 260 1.0 7.0 0.00 0.00 0.06 34 1011.5
20260507170004 64 161 0.0 4.0 0.00 0.00 0.06 42 1012.1
20260507165004 63 52 0.0 5.0 0.00 0.00 0.06 40 1012.2
20260507164004 62 73 0.0 4.0 0.00 0.00 0.06 42 1012.3
20260507163003 60 275 0.0 0.0 0.00 0.00 0.06 41 1012.6
20260507162003 60 271 0.0 1.0 0.00 0.00 0.06 40 1012.6
20260507161003 61 95 0.0 2.0 0.00 0.00 0.06 46 1013.0
20260507160004 60 174 0.0 0.0 0.00 0.00 0.06 49 1013.0
20260507155004 58 186 0.0 0.0 0.00 0.00 0.06 51 1012.9
20260507154004 57 250 0.0 0.0 0.00 0.00 0.06 52 1013.1
20260507152004 57 57 0.0 0.0 0.00 0.00 0.06 53 1013.4
20260507150005 56 92 0.0 0.0 0.00 0.00 0.06 54 1013.6
20260507143004 55 60 0.0 0.0 0.00 0.00 0.06 56 1013.9
20260507142004 54 33 0.0 0.0 0.00 0.00 0.06 59 1014.0
20260507141003 54 48 0.0 0.0 0.00 0.00 0.06 61 1014.0
20260507140004 54 72 0.0 0.0 0.00 0.00 0.06 61 1013.9
20260507135003 53 23 0.0 0.0 0.00 0.00 0.06 65 1014.1